[[{"header":{"parameterUnit":"m.s-1","parameterCategory":1,"la1":30.2991,"la2":30.254,"lo1":-89.0895,"lo2":-89.0444,"dy":0.0017,"dx":0.0017,"nx":28,"ny":28,"refTime":"2024-04-14T21:00:00:Z","depth":0,"parameterNumber":2,"parameterNumberName":"U-component_of_WINDS"},"data":[0,0,0,0,0,0,0,0,0,0,0,0,0,0,0,0,0,0,0,0,0,0,0,0,0,0,0,0,0,0,0,0,0,0,0,0,0,0,0,0,0,0,0,0,0,0,0,0,0,0,0,0,0,0,0,0,0,0,-2.3001,-2.3001,0,-2.2984,-2.2984,-2.2983,-2.2947,-2.2947,-2.2946,-2.2945,-2.2927,-2.2928,-2.2928,0,0,0,0,0,0,0,0,0,0,0,0,0,-2.3003,-2.3004,-2.3001,-2.3001,-2.3001,-2.2984,-2.2984,-2.2983,-2.2947,-2.2947,-2.2946,-2.2945,-2.2927,-2.2927,-2.2928,0,0,0,0,0,0,0,0,0,0,0,0,0,-2.2996,-2.3004,-2.3001,-2.2981,-2.2979,-2.2984,-2.2984,-2.2983,-2.2948,-2.2947,-2.2945,-2.2944,-2.2927,-2.2927,-2.2928,-2.2951,0,0,-2.2929,-2.2929,0,0,0,0,0,0,0,0,-2.2996,-2.2996,-2.2984,-2.2982,-2.298,-2.2967,-2.2978,-2.2973,-2.2948,-2.2959,-2.2945,-2.2944,-2.2941,-2.294,-2.2939,-2.295,-2.295,-2.2929,-2.2929,-2.2929,-2.2929,0,0,0,0,0,0,0,-2.2997,-2.2996,-2.2994,-2.2984,-2.2981,-2.2973,-2.297,-2.2977,-2.2957,-2.2958,-2.2956,-2.2954,-2.294,-2.2939,-2.2939,-2.2949,-2.2929,-2.2929,-2.2929,-2.2929,-2.2979,-2.298,0,0,0,0,0,0,-2.3,-2.2997,-2.2995,-2.2994,-2.2986,-2.2973,-2.2971,-2.2972,-2.2956,-2.2953,-2.2955,-2.2953,-2.2939,-2.2938,-2.2938,-2.2964,-2.2929,-2.2929,-2.2929,-2.2978,-2.2979,-2.2981,0,0,0,0,0,0,-2.3001,-2.3001,-2.2995,-2.2995,-2.2993,-2.2975,-2.2976,-2.2972,-2.2971,-2.2954,-2.295,-2.2958,-2.2938,-2.2938,-2.2948,-2.2963,-2.2929,-2.293,-2.2977,-2.2978,-2.298,-2.3017,0,0,0,0,0,0,-2.3001,-2.3001,-2.3009,-2.2995,-2.2994,-2.3006,-2.2977,-2.2973,-2.2972,-2.2969,-2.2956,-2.2953,-2.2937,-2.2948,-2.2949,-2.2963,-2.293,-2.2975,-2.2978,-2.298,-2.3015,-2.302,-2.3025,0,0,0,0,0,-2.3001,-2.302,-2.301,-2.301,-2.3004,-2.3007,-2.3006,-2.2988,-2.2973,-2.2982,-2.2971,-2.2953,-2.2962,-2.2949,-2.295,-2.2964,-2.2974,-2.2977,-2.2979,-2.3012,-2.3019,-2.3025,0,0,0,0,0,0,-2.3037,-2.3018,-2.3006,-2.3022,-2.3016,-2.3001,-2.3011,-2.2996,-2.2994,-2.2991,-2.2969,-2.2967,-2.298,-2.2974,-2.296,-2.2987,-2.2965,-2.2968,-2.299,-2.2996,-2.3001,-2.3002,-2.293,0,0,0,0,0,-2.3046,-2.305,-2.3034,-2.3049,-2.3047,-2.303,-2.303,-2.3017,-2.3011,-2.3008,-2.2998,-2.2992,-2.2993,-2.2995,-2.2995,-2.3014,-2.3011,-2.3024,-2.303,-2.3034,-2.3036,-2.3046,-2.3051,-2.2989,-2.2989,-2.2989,0,0,-2.3066,-2.3057,-2.306,-2.3056,-2.305,-2.3055,-2.3028,-2.3034,-2.3037,-2.3009,-2.3018,-2.3011,-2.3003,-2.3018,-2.3024,-2.3013,-2.3053,-2.3037,-2.3041,-2.3041,-2.3049,-2.3055,-2.306,-2.2991,-2.2991,-2.299,0,0,-2.3105,-2.3098,-2.311,-2.3105,-2.3097,-2.3085,-2.3088,-2.3075,-2.3069,-2.3078,-2.3057,-2.3061,-2.3064,-2.3059,-2.3057,-2.3096,-2.3079,-2.3097,-2.3122,-2.3132,-2.3137,-2.3141,-2.3154,-2.3159,-2.3099,-2.3099,-2.3099,0,-2.313,-2.3137,-2.3118,-2.3125,-2.3124,-2.31,-2.3111,-2.3107,-2.31,-2.31,-2.3087,-2.3091,-2.3084,-2.3097,-2.3107,-2.3106,-2.3109,-2.3097,-2.3138,-2.3142,-2.3145,-2.3158,-2.3163,-2.3101,-2.3101,-2.3101,-2.3101,0,-2.3168,-2.3173,-2.3184,-2.3177,-2.3177,-2.3187,-2.317,-2.3173,-2.316,-2.315,-2.316,-2.3151,-2.3149,-2.3152,-2.3139,-2.3164,-2.3157,-2.3142,-2.3119,-2.3154,-2.3165,-2.317,-2.3104,-2.3104,-2.3103,-2.3102,0,0,-2.3228,-2.3211,-2.3215,-2.3212,-2.3202,-2.3205,-2.3214,-2.3212,-2.3215,-2.3211,-2.3218,-2.3221,-2.3207,-2.3205,-2.3192,-2.3201,-2.3231,-2.3184,-2.3184,-2.3193,-2.3257,-2.3268,-2.3274,-2.3221,-2.3222,-2.3222,-2.3258,0,-2.3263,-2.3277,-2.3261,-2.3278,-2.3283,-2.326,-2.3268,-2.3262,-2.3253,-2.3256,-2.3246,-2.3249,-2.323,-2.3229,-2.3236,-2.3226,-2.3244,-2.3223,-2.3227,-2.3227,-2.3228,-2.328,-2.3291,-2.3325,-2.3262,-2.3263,-2.3263,0,-2.3306,-2.3304,-2.3322,-2.3311,-2.3312,-2.3319,-2.3317,-2.3319,-2.3313,-2.3306,-2.3304,-2.3289,-2.3297,-2.3276,-2.3287,-2.3274,-2.3275,-2.327,-2.3271,-2.3269,-2.3247,-2.3279,-2.3335,-2.334,-2.327,-2.327,-2.3269,0,-2.3347,-2.3349,-2.336,-2.3358,-2.3345,-2.3351,-2.3346,-2.3338,-2.3339,-2.3337,-2.3337,-2.3336,-2.3335,-2.3335,-2.332,-2.3306,-2.3333,-2.3311,-2.3327,-2.3327,-2.3332,-2.3332,-2.3389,-2.3335,-2.3335,-2.3334,-2.3334,0,-2.3388,-2.3399,-2.3378,-2.3385,-2.3397,-2.3379,-2.3392,-2.3385,-2.3379,-2.3383,-2.3364,-2.3369,-2.335,-2.3353,-2.3341,-2.3352,-2.3352,-2.3346,-2.3343,-2.3348,-2.3348,-2.3347,-2.3344,-2.3336,-2.3335,-2.3335,-2.3335,0,-2.3435,-2.3421,-2.3431,-2.3419,-2.3416,-2.3426,-2.3415,-2.3421,-2.3411,-2.3418,-2.3418,-2.3403,-2.3406,-2.3391,-2.3391,-2.3383,-2.3399,-2.3393,-2.3402,-2.3399,-2.3416,-2.3414,-2.3473,-2.3479,-2.3422,-2.3422,-2.3423,0,-2.3462,-2.347,-2.3459,-2.346,-2.3456,-2.346,-2.346,-2.3443,-2.3444,-2.3438,-2.3444,-2.3446,-2.3445,-2.3451,-2.344,-2.344,-2.3432,-2.3453,-2.3432,-2.3437,-2.3432,-2.3431,-2.3432,-2.3457,-2.3458,-2.3458,-2.3459,0,-2.351,-2.3503,-2.3504,-2.3503,-2.3504,-2.3502,-2.3499,-2.3502,-2.3483,-2.3486,-2.3488,-2.3488,-2.3489,-2.349,-2.3488,-2.3483,-2.3468,-2.3466,-2.3469,-2.3473,-2.3478,-2.3475,-2.3412,-2.3464,-2.3463,-2.3463,-2.3463,-2.3463,-2.3548,-2.3554,-2.3547,-2.3549,-2.3545,-2.3543,-2.3547,-2.3538,-2.354,-2.3539,-2.3529,-2.3534,-2.3527,-2.3523,-2.352,-2.3523,-2.3513,-2.3519,-2.352,-2.3521,-2.3524,-2.3478,-2.3523,-2.3523,-2.3522,-2.3522,-2.3522,0,-2.3595,-2.3589,-2.3591,-2.3588,-2.3589,-2.3575,-2.3572,-2.3574,-2.3578,-2.3573,-2.3574,-2.3577,-2.3578,-2.3568,-2.3568,-2.3573,-2.3566,-2.3573,-2.3572,-2.3571,-2.3533,-2.3529,-2.3579,-2.3579,-2.3579,-2.3579,-2.3579,-2.3579,-2.362,-2.363,-2.3622,-2.363,-2.3624,-2.3628,-2.3627,-2.3625,-2.3622,-2.3626,-2.3627,-2.362,-2.3613,-2.3613,-2.3614,-2.3611,-2.3611,-2.3621,-2.3616,-2.358,-2.3574,-2.3569,-2.3565,-2.3621,-2.3622,-2.3654,-2.3654,-2.3654]},{"header":{"parameterUnit":"m.s-1","parameterCategory":1,"la1":30.2991,"la2":30.254,"lo1":-89.0895,"lo2":-89.0444,"dy":0.0017,"dx":0.0017,"nx":28,"ny":28,"refTime":"2024-04-14T21:00:00:Z","depth":0,"parameterNumber":3,"parameterNumberName":"V-component_of_WINDS"},"data":[0,0,0,0,0,0,0,0,0,0,0,0,0,0,0,0,0,0,0,0,0,0,0,0,0,0,0,0,0,0,0,0,0,0,0,0,0,0,0,0,0,0,0,0,0,0,0,0,0,0,0,0,0,0,0,0,0,0,4.7205,4.7205,0,4.7224,4.7224,4.7225,4.716,4.7158,4.7156,4.7154,4.7172,4.7174,4.7176,0,0,0,0,0,0,0,0,0,0,0,0,0,4.7109,4.7111,4.7205,4.7205,4.7205,4.7224,4.7224,4.7225,4.716,4.7158,4.7156,4.7154,4.7171,4.7174,4.7177,0,0,0,0,0,0,0,0,0,0,0,0,0,4.7142,4.7112,4.7205,4.7175,4.7173,4.7224,4.7224,4.7225,4.7161,4.7158,4.7155,4.7152,4.717,4.7174,4.7177,4.7256,0,0,4.7187,4.7189,0,0,0,0,0,0,0,0,4.714,4.7145,4.7179,4.7178,4.7175,4.7187,4.7197,4.7235,4.7162,4.7166,4.7154,4.7151,4.7179,4.7182,4.7192,4.7257,4.7258,4.7188,4.719,4.7191,4.7192,0,0,0,0,0,0,0,4.7138,4.7144,4.7212,4.718,4.7177,4.716,4.7162,4.7204,4.7188,4.7165,4.716,4.7164,4.7177,4.7188,4.7191,4.7258,4.7188,4.7191,4.7193,4.7194,4.7388,4.7391,0,0,0,0,0,0,4.714,4.7143,4.7212,4.7213,4.715,4.7165,4.7166,4.7186,4.7188,4.7185,4.7166,4.7161,4.7184,4.7188,4.7192,4.7284,4.7191,4.7194,4.7196,4.7385,4.7389,4.7392,0,0,0,0,0,0,4.7138,4.7146,4.7211,4.7176,4.7183,4.7169,4.7192,4.7188,4.7199,4.7189,4.7185,4.7181,4.7182,4.7187,4.7241,4.7284,4.7196,4.7199,4.7382,4.7387,4.7391,4.7469,0,0,0,0,0,0,4.7135,4.7146,4.7177,4.7178,4.7186,4.726,4.7195,4.719,4.7205,4.7198,4.7201,4.7199,4.718,4.7236,4.7244,4.7287,4.7202,4.7378,4.7384,4.7389,4.7463,4.7476,4.7487,0,0,0,0,0,4.7132,4.7198,4.7179,4.7187,4.7224,4.7263,4.7267,4.7245,4.7209,4.7239,4.7232,4.7199,4.7278,4.7242,4.7251,4.7295,4.7375,4.7382,4.7389,4.7457,4.7473,4.7487,0,0,0,0,0,0,4.7201,4.7197,4.7176,4.7244,4.7255,4.7252,4.7289,4.7263,4.7283,4.7275,4.7246,4.7247,4.7306,4.7306,4.7266,4.7371,4.732,4.7329,4.7369,4.7384,4.7396,4.7395,4.7205,0,0,0,0,0,4.7225,4.7258,4.7252,4.7312,4.7319,4.7304,4.732,4.7302,4.7311,4.7315,4.7312,4.7321,4.7348,4.7366,4.739,4.7463,4.7462,4.7497,4.751,4.752,4.7528,4.7565,4.7581,4.7416,4.7415,4.7415,0,0,4.7273,4.7275,4.7297,4.7326,4.7332,4.7366,4.7307,4.7346,4.7371,4.732,4.737,4.7369,4.7378,4.7441,4.7468,4.7442,4.7573,4.7529,4.7537,4.7539,4.7574,4.759,4.7603,4.742,4.7419,4.7419,0,0,4.7377,4.7383,4.7433,4.7441,4.7451,4.744,4.7452,4.7454,4.7451,4.7502,4.7464,4.7493,4.754,4.7547,4.7557,4.7666,4.7635,4.7674,4.7738,4.7775,4.7788,4.7799,4.7837,4.7851,4.7682,4.7683,4.7683,0,4.7436,4.7486,4.7462,4.7504,4.7517,4.7474,4.7524,4.7532,4.755,4.756,4.7531,4.7589,4.7591,4.7655,4.7682,4.7692,4.7704,4.7673,4.7788,4.7799,4.781,4.7845,4.7859,4.7687,4.7687,4.7686,4.7686,0,4.7557,4.7593,4.7632,4.7651,4.7669,4.7714,4.7696,4.7717,4.7698,4.769,4.7742,4.7744,4.7767,4.7781,4.7762,4.7842,4.7826,4.7793,4.7741,4.783,4.7863,4.7877,4.7694,4.7692,4.7691,4.769,0,0,4.7705,4.771,4.7725,4.7732,4.7741,4.7767,4.7811,4.7834,4.7852,4.7866,4.7901,4.7942,4.7912,4.7923,4.7905,4.7937,4.8021,4.79,4.79,4.7922,4.8109,4.8133,4.8149,4.8002,4.8004,4.8006,4.8108,0,4.7807,4.7882,4.7862,4.7937,4.7969,4.7928,4.7966,4.7975,4.7969,4.7994,4.7987,4.8016,4.7975,4.7981,4.8012,4.8005,4.8058,4.7997,4.8033,4.8034,4.8031,4.8166,4.8192,4.8287,4.812,4.8123,4.8124,0,4.7937,4.7956,4.8034,4.8036,4.8049,4.8083,4.8103,4.8129,4.8137,4.813,4.8144,4.8119,4.816,4.8109,4.8165,4.8124,4.8138,4.8137,4.814,4.8141,4.8084,4.817,4.8317,4.8331,4.8144,4.8143,4.8141,0,4.8036,4.8081,4.8133,4.8141,4.8146,4.817,4.8173,4.8179,4.8195,4.8212,4.8221,4.8243,4.8255,4.8272,4.8253,4.8218,4.8313,4.826,4.8307,4.8308,4.8328,4.8327,4.8478,4.8339,4.8339,4.8338,4.8338,0,4.8151,4.82,4.8178,4.821,4.8263,4.8239,4.8293,4.8291,4.8296,4.8327,4.8293,4.8322,4.8296,4.8322,4.8308,4.8357,4.8362,4.8357,4.8353,4.836,4.836,4.8367,4.836,4.8342,4.8341,4.834,4.834,0,4.8271,4.8258,4.8312,4.8312,4.8313,4.8352,4.8352,4.8381,4.8372,4.8411,4.8419,4.8406,4.8435,4.8418,4.8448,4.8439,4.8501,4.8488,4.8499,4.8495,4.8543,4.8538,4.8703,4.8723,4.8572,4.8573,4.8575,0,4.8345,4.8382,4.8386,4.8404,4.841,4.8439,4.8455,4.8433,4.8451,4.8463,4.8491,4.8518,4.8538,4.8586,4.8579,4.8601,4.8588,4.8644,4.8591,4.8597,4.8587,4.8585,4.8588,4.8654,4.8656,4.8658,4.8659,0,4.8478,4.847,4.8494,4.8517,4.8537,4.8553,4.8567,4.8583,4.8561,4.8583,4.8613,4.8629,4.8659,4.8686,4.8705,4.8707,4.8679,4.8676,4.8688,4.8695,4.8699,4.8696,4.8527,4.8672,4.867,4.867,4.8669,4.8668,4.8576,4.8607,4.8614,4.8643,4.8651,4.8664,4.8691,4.8687,4.8712,4.8736,4.8721,4.8756,4.8763,4.8786,4.8792,4.8818,4.8796,4.8813,4.8817,4.8822,4.8828,4.8696,4.8822,4.8821,4.8821,4.8821,4.882,0,4.8706,4.8709,4.8736,4.8756,4.8778,4.8751,4.8765,4.8785,4.8816,4.8826,4.8846,4.888,4.8906,4.8901,4.8924,4.8946,4.8934,4.8953,4.895,4.8951,4.8847,4.8834,4.8962,4.8962,4.8962,4.8962,4.8962,4.8962,4.8776,4.8827,4.8819,4.8873,4.8875,4.891,4.892,4.8932,4.8939,4.8979,4.9,4.8997,4.9001,4.9024,4.9046,4.9043,4.9053,4.9076,4.9069,4.8973,4.8958,4.8945,4.8932,4.9079,4.9079,4.9171,4.9171,4.9172]}]]